User: anonymous
Location: Donald C. Martin Observatory
(38.3885°N, 82.3916°W)
Time: 09:04:57
(UTC-04:00)
Language:

Cosmos 1484 Rocket - Orbit

View from above orbital plane
View from above orbital plane
View from above satellite
View from above satellite

Ground track
Ground track

The orbit data is extracted from the following two-line orbital elements,

1 14208U 83075B   14237.70290859  .00001447  00000-0  98351-4 0   981
2 14208 097.4196 272.0857 0043776 066.4401 294.1416 15.07122798692671
Epoch (UTC): 25 August 2014 16:52:11
Eccentricity: 0.0043776
inclination: 97.4196°
perigee height: 514 km
apogee height: 575 km
right ascension of ascending node: 272.0857°
argument of perigee: 66.4401°
revolutions per day: 15.07122798
mean anomaly at epoch: 294.1416°
orbit number at epoch: 69267

The dashed part of the orbit path shows where the satellite is in the earth's shadow,  

DLR